Track COSMOS 2436 (GLONASS) now! COSMOS 2436 (GLONASS) is classified as:
1 32395U 07065C 25199.39236274 .00000118 00000-0 00000-0 0 9992 2 32395 64.3265 203.2432 0016729 352.7141 123.7339 2.13100086136610